Location: Unspecified
(43.8044°N, 11.0278°E)
Time: 12:28:29
(UTC+02:00)

Resurs 1-4 Rocket - Visible Passes

Search period start: 02 September 2015 00:00
Search period end: 12 September 2015 00:00
Orbit: 799 x 815 km, 98.4° (Epoch: 01 September)

Date Brightness Start Highest point End Pass type
(mag) Time Alt. Az. Time Alt. Az. Time Alt. Az.
02 Sep 3.8 03:49:21 10° NE 03:53:51 29° E 03:56:55 17° SE visible
02 Sep 2.7 05:28:57 10° N 05:33:50 39° WNW 05:38:00 14° SW visible
03 Sep 4.4 03:25:41 10° NE 03:29:03 18° E 03:32:02 12° SE visible
03 Sep 2.1 05:04:13 10° N 05:09:27 63° WNW 05:13:07 20° SSW visible
04 Sep 2.1 04:39:39 10° NNE 04:44:58 81° ESE 04:48:14 24° S visible
05 Sep 2.8 04:15:17 10° NNE 04:20:24 49° E 04:23:21 24° SSE visible
05 Sep 3.3 05:55:49 10° NNW 06:00:01 24° WNW 06:04:07 10° WSW visible
06 Sep 3.7 03:51:09 10° NE 03:55:44 30° E 03:58:27 20° SE visible
06 Sep 2.7 05:30:51 10° N 05:35:42 37° WNW 05:39:32 15° SW visible
07 Sep 4.3 03:27:26 10° NE 03:30:57 18° E 03:33:34 14° SE visible
07 Sep 2.2 05:06:06 10° N 05:11:18 60° WNW 05:14:39 22° SW visible
08 Sep 4.8 03:05:04 10° ENE 03:06:03 11° E 03:07:23 10° E visible
08 Sep 2.1 04:41:31 10° NNE 04:46:50 84° E 04:49:46 28° S visible
09 Sep 2.8 04:17:08 10° NNE 04:22:17 52° E 04:24:53 28° SSE visible
09 Sep 3.4 05:57:44 10° NNW 06:01:52 23° WNW 06:05:53 10° WSW visible
10 Sep 3.6 03:52:59 10° NNE 03:57:38 31° E 03:59:59 23° SE visible
10 Sep 2.8 05:32:44 10° N 05:37:33 36° WNW 05:41:04 17° SW visible
11 Sep 4.3 03:29:11 10° NE 03:32:52 19° E 03:35:06 16° ESE visible
11 Sep 2.2 05:07:58 10° N 05:13:10 57° WNW 05:16:10 25° SW visible
